Flag for Marshall Islands Weather past 2 weeks in Majuro, Marshall Islands

Now
85 °F

More clouds than sun.


Feels Like: 96 °F
Forecast: 81 / 86 °F
Wind: 6 mph from East

Location: Majuro Atoll

Current Time: Apr 27, 2015 at 10:35:20 AM

Latest Report: Apr 27, 2015 at 9:52 AM


Visibility: 15 mi

Pressure: 29.85 "Hg

Humidity: 80%

Dew point: 78 °F

Location of MajuroLocation

Historic Weather in Majuro — Graph

°F

Majuro temperature yesterday

Maximum temperature yesterday: 87 °F (at 2:52 PM)
Minimum temperature yesterday: 79 °F (at 7:56 AM)
Average temperature yesterday: 83 °F

Past Weeks' High & Low Weather Summary

 TemperatureHumidityPressure
High87 °F (Apr 24, 1:55 PM)95% (Apr 22, 11:51 PM)29.95 "Hg (Apr 22, 11:51 PM)
Low76 °F (Apr 16, 3:54 PM)75% (Apr 14, 11:53 AM)29.72 "Hg (Apr 25, 3:52 PM)
Average82 °F84%29.82 "Hg
* Reported Apr 12 8:51 AM — Apr 27 8:54 AM, Majuro, Weather by CustomWeather, © 2015

Note: Actual official high and low records may vary slightly from our data, if they occured in-between our weather recording intervals... More about our weather records

Advertising

Majuro weather history for previous 24 hours

 ConditionsComfort  
Time TempWeatherWind HumidityBarometerVisibility
8:54 AM
Mon, Apr 27
85 °FCloudy.6 mph80%29.85 "Hg15 mi
7:51 AM83 °FCloudy.5 mph83%29.83 "Hg15 mi
6:50 AM81 °FPartly cloudy.5 mph87%29.82 "Hg15 mi
5:52 AM82 °FPartly cloudy.6 mph86%29.80 "Hg15 mi
4:52 AM82 °FPartly cloudy.7 mph86%29.78 "Hg15 mi
3:53 AM82 °FPartly cloudy.5 mph85%29.78 "Hg15 mi
2:52 AM82 °FPartly cloudy.5 mph84%29.80 "Hg15 mi
1:54 AM82 °FPartly cloudy.3 mph87%29.80 "Hg15 mi
12:52 AM82 °FPartly cloudy.7 mph85%29.83 "Hg15 mi
11:52 PM
Sun, Apr 26
82 °FPartly cloudy.6 mph86%29.84 "Hg15 mi
10:53 PM82 °FPartly cloudy.7 mph87%29.86 "Hg15 mi
9:52 PM82 °FPartly cloudy.8 mph85%29.85 "Hg15 mi
8:52 PM83 °FPartly cloudy.6 mph87%29.84 "Hg15 mi
7:55 PM83 °FOvercast.3 mph85%29.83 "Hg15 mi
6:52 PM84 °FMore clouds than sun.5 mph84%29.81 "Hg15 mi
5:55 PM84 °FCloudy.No wind80%29.80 "Hg15 mi
4:52 PM86 °FBroken clouds.No wind75%29.78 "Hg20 mi
3:52 PM86 °FBroken clouds.3 mph78%29.77 "Hg20 mi
2:52 PM87 °FBroken clouds.3 mph76%29.78 "Hg20 mi
1:51 PM86 °FBroken clouds.7 mph77%29.79 "Hg20 mi
12:52 PM86 °FBroken clouds.7 mph80%29.82 "Hg20 mi
11:50 AM85 °FBroken clouds.No wind84%29.84 "Hg20 mi
10:50 AM85 °FBroken clouds.No wind82%29.85 "Hg20 mi
Weather by CustomWeather, © 2015

See weather overviewHow to use our weather pages